Preview of NWS' New Version of Forecast
This preview is not operational and should not be used for support decisions.

Regional Weather Roundup (RWR)

Issued by National Weather Service (NWS)

                            
000
ASUS46 KPQR 241510
RWROR 

OREGON REGIONAL WEATHER ROUNDUP
NATIONAL WEATHER SERVICE PORTLAND OR
800 AM PDT SAT AUG 24 2019

NOTE: "FAIR" INDICATES FEW OR NO CLOUDS BELOW 12,000 FEET WITH
NO SIGNIFICANT WEATHER AND/OR OBSTRUCTIONS TO VISIBILITY.

ORZ001>013-241600-
NORTHWEST OREGON

  
CITY           SKY/WX    TMP DP  RH WIND       PRES   REMARKS
ASTORIA        PTSUNNY   56  53  90 CALM      29.98R                  
TILLAMOOK      CLOUDY    52  48  87 CALM      30.02R                  
NEWPORT        SUNNY     52  52 100 CALM      30.03S                  
FLORENCE       FAIR      50  48  93 E3        30.00R                  
PORTLAND       PTSUNNY   63  47  55 CALM      29.99R                  
VANCOUVER WA   PTSUNNY   62  45  53 CALM      29.99R                  
SCAPPOOSE      CLOUDY    63  49  60 N3        29.98R                  
HILLSBORO      PTSUNNY   59  50  72 CALM      29.99R                  
AURORA         SUNNY     61  47  59 CALM      30.00R                  
MCMINNVILLE    CLOUDY    56  49  77 CALM      29.99R                  
SALEM          SUNNY     61  49  64 NW5       29.98R                  
CORVALLIS      SUNNY     58  48  69 W3        30.01R                  
EUGENE         SUNNY     57  52  83 CALM      30.00R                  
CRESWELL       SUNNY     55  54  94 CALM      29.98R                  
$$

ORZ021-028-241600-
SOUTHWEST OREGON

  
CITY           SKY/WX    TMP DP  RH WIND       PRES   REMARKS
NORTH BEND     MOSUNNY   52  52 100 SE5       30.03R FOG              
BROOKINGS      SUNNY     54  52  93 CALM      29.94R                  
ROSEBURG       SUNNY     59  53  80 SW3       29.99R                  
SEXTON SUMMIT  SUNNY     63  45  51 CALM      30.05R                  
GRANTS PASS    FAIR      59  50  72 CALM      30.01R                  
MEDFORD        SUNNY     59  50  72 N3        29.98R                  
$$

ORZ014>016-041-241600-
COLUMBIA GORGE

  
CITY           SKY/WX    TMP DP  RH WIND       PRES   REMARKS
TROUTDALE      SUNNY     62  49  62 CALM      29.99R                  
HOOD RIVER     MOSUNNY   66  54  63 NW7       29.92R                  
THE DALLES     MOSUNNY   70  54  56 NW9       29.89R                  
$$

ORZ029>031-041-044-049-050-061>064-502-503-505>511-241600-
EASTERN OREGON

  
CITY           SKY/WX    TMP DP  RH WIND       PRES   REMARKS
MADRAS         SUNNY     59  46  63 CALM      29.99R                  
REDMOND        SUNNY     61  47  59 S6        29.99R                  
BEND           SUNNY     61  46  59 S7        30.00S                  
PRINEVILLE     SUNNY     59  46  63 CALM      29.99S                  
KLAMATH FALLS  SUNNY     57  47  69 CALM      30.06R                  
LAKEVIEW       SUNNY     57  45  64 E3        30.10R                  
HERMISTON      MOSUNNY   74  51  44 W15G22    29.85R                  
PENDLETON      PTSUNNY   73  46  38 W10       29.89R                  
JOHN DAY       SUNNY     61  37  40 E6        30.01S                  
MEACHAM        MOSUNNY   54  43  66 CALM      29.99R                  
LA GRANDE      PTSUNNY   60  45  57 NW3       29.95                   
BAKER CITY     MOSUNNY   57  48  72 CALM      29.98R                  
BURNS          SUNNY     58  33  39 E3        30.04R                  
ROME             N/A     68  28  22 CALM      30.01R                  
ONTARIO        SUNNY     64  48  56 VRB3      29.94R                  
$$